1st Responders/1st Detectors/Storm Spotters Weather Summary for Carlisle County, KY

Forecast Maps


Reg. NEXRAD Animation


National Fire Danger: Day 1 & 2 Map

Current NWS Watch/Warnings

SPC Convective Day 1 Outlook


Day 2 Outlook

(Click images to enlarge|Page will refresh every 5 minutes)
UK Ag. Weather Center Desktop Severe Weather Service[HERE]
Carlisle County, KY Hazardous Weather Outlook Webcast
(9 AM to 9 PM Mon-Fri)
[Fast]
[Dial-up]


UKAWC 1st Detectors/1st Responders Precision Weather Forecast For CARLISLE County, Kentucky
(based on the NWS County Digital Forecast)

ISSUED AT 06:00 UTC ON SUNDAY DEC 17 2017
DAY SUNDAY
CDT 3HR 2A 3A 4A 5A 6A 7A 8A 9A 10A 11A NOON 1P 2P 3P 4P 5P 6P
MAX/MIN -- -- -- -- -- 38° -- -- -- -- -- -- -- -- -- -- 49°
TEMP 38° 38° 38° 38° 38° 38° 38° 38° 40° 41° 43° 45° 47° 49° 49° 47° 47°
SKY COVER 83% 86% 96% 92% 97% 100% 100% 99% 99% 98% 98% 97% 94% 91% 89% 86% 83%
Clouds
DEW PT 31° 32° 32° 34° 34° 34° 36° 36° 38° 38° 40° 40° 41° 41° 41° 41° 41°
RH 76% 78% 78% 81% 85% 88% 92% 92% 92% 88% 86% 82% 79% 76% 76% 80% 83%
POP 12HR -- -- -- -- -- 59% -- -- -- -- -- -- -- -- -- -- --
RAIN/SNOW (liq.equ) -- -- -- -- -- 0.06in -- -- -- -- -- 0.14in -- -- -- -- --
SNOWFALL -- -- -- -- -- 0in -- -- -- -- -- 0in -- -- -- -- --
WIND SPEED(MPH) 6 6 6 6 5 5 6 6 7 7 7 7 7 6 6 6 5
WIND Gust(MPH) 7 7 7 7 6 6 7 7 9 8 8 8 8 7 7 7 7
WIND DIR S S S S S S S S SE S S S S S S S S
DEW Frost Frost -- -- -- -- -- -- -- -- -- -- -- -- Lgt Dew Lgt Dew Lgt Dew
HeatIndex 34 34 34 34 34 34 33 34 35 37 40 45 47 49 49 47 47
Snow Showers -- -- -- -- -- -- -- -- -- -- -- -- -- -- -- -- --
Rain -- -- -- -- -- -- -- -- -- -- -- -- -- -- -- -- --
Rain Showers Slight Chance Slight Chance Chance Chance Likely Definite Definite Likely Chance Chance Chance -- Slight Chance Slight Chance Slight Chance -- --
WIND CHILL 34° 34° 34° 34° 35° 35° 34° 34° 35° 36° 39° 41° -- -- -- -- --
SPRAY COND
DRY COND
LIVESTOCK COLDSTRESS



DAY MONDAY TUESDAY WEDNESDAY THURSDAY FRIDAY SATURDAY
CDT 6HR 7P 8P 9P 10P 11P MIDN 1A 2A 3A 4A 5A 6A 7A 8A 9A 10A 11A NOON 1P 4P 7P 10P 1A 4A 7A 10A 1P 4P 7P 1A 7A 1P 7P 1A 7A 1P 7P 1A 7A 1P 7P 1A 7A 1P 7P
MAX/MIN -- -- -- -- -- -- -- -- -- -- -- -- 40° -- -- -- -- -- -- 58° -- -- -- -- 43° -- -- 58° -- -- 36° 52° -- -- 38° 58° -- -- 36° 47° -- -- 29° 40° --
TEMP 45° 43° 43° 43° 43° 43° 43° 43° 43° 43° 41° 40° 40° 41° 43° 45° 49° 52° 54° 58° 52° 49° 49° 45° 45° 52° 54° 58° 47° 40° 36° 52° 45° 40° 40° 56° 49° 47° 36° 47° 40° 31° 29° 40° 36°
SKY COVER 80% 81% 81% 82% 82% 83% 83% 83% 83% 84% 84% 84% 84% 84% 83% 83% 82% 82% 81% 71% 60% 57% 53% 63% 66% 61% 56% 49% 41% 35% 35% 41% 32% 31% 39% 39% 43% 69% 70% 67% 65% 59% 69% 73% 68%
Clouds
DEW PT 41° 41° 43° 43° 43° 41° 41° 41° 43° 43° 41° 40° 40° 41° 43° 43° 45° 45° 45° 45° 45° 43° 45° 43° 43° 45° 45° 43° 40° 36° 32° 36° 34° 32° 34° 40° 40° 38° 34° 29° 27° 22° 22° 22° 22°
RH 86% 93% 96% 99% 99% 96% 96% 92% 96% 99% 100% 99% 99% 99% 95% 92% 86% 80% 74% 61% 73% 79% 86% 89% 92% 74% 69% 57% 76% 81% 85% 54% 62% 73% 78% 53% 71% 73% 92% 51% 56% 68% 74% 47% 56%
POP 12HR 82% -- -- -- -- -- -- -- -- -- -- -- 13% -- -- -- -- -- -- -- 4% -- -- -- 6% -- -- -- 13% -- 20% -- 26% -- 2% -- 7% -- 30% -- 16% -- 23% -- 16%
RAIN/SNOW (liq.equ) 0.00in -- -- -- -- -- 0.00in -- -- -- -- -- 0.00in -- -- -- -- -- 0.00in -- 0.00in -- 0.00in -- 0.00in -- 0.00in -- 0.00in -- -- -- -- -- -- -- -- -- -- -- -- -- -- -- --
SNOWFALL 0in -- -- -- -- -- 0in -- -- -- -- -- 0in -- -- -- -- -- 0in -- 0in -- 0in -- 0in -- 0in -- 0in -- -- -- -- -- -- -- -- -- -- -- -- -- -- -- --
WIND SPEED(MPH) 5 5 5 5 5 2 2 2 2 2 2 2 2 5 5 6 6 7 7 7 5 6 5 5 5 6 6 6 5 2 6 7 5 5 6 8 7 7 9 10 8 7 8 8 7
WIND DIR S S S S S S S S SW SW SW SW SW SW SW SW SW SW SW SW SW SW SW SW W W W NW NW N NE E NE SE SE S S SW W NW N N N NE NE
HeatIndex 45 41 41 40 40 41 41 42 42 41 40 38 38 39 41 45 49 52 54 58 52 49 49 45 42 52 54 58 47 38 32 52 45 38 35 56 49 47 29 47 35 24 21 34 30
Snow Showers -- -- -- -- -- -- -- -- -- -- -- -- -- -- -- -- -- -- -- -- -- -- -- -- -- -- -- -- -- -- -- -- -- -- -- -- -- -- -- -- -- -- -- -- Slight Chance
Rain -- -- -- -- -- -- -- -- -- -- -- -- -- -- -- -- -- -- -- -- -- -- -- -- -- -- -- -- -- -- -- -- -- -- -- -- -- Chance Slight Chance Slight Chance Slight Chance -- -- Slight Chance --
Rain Showers -- -- -- -- -- -- -- -- -- -- -- -- -- -- -- -- -- -- -- -- -- -- -- -- -- -- -- -- -- Slight Chance Slight Chance Chance -- -- -- -- -- -- -- -- -- -- -- -- Slight Chance
WIND CHILL 43° 40° 40° 40° 40° -- -- -- -- -- -- -- -- 38° 40° 42° -- -- -- -- -- -- -- 43° 43° -- -- -- -- -- 31° -- 43° 37° 36° -- -- -- 29° -- 35° 25° 21° 35° 30°
SPRAY COND
DRY COND
LIVESTOCK COLDSTRESS

Click on individual weather variable above in left-hand column (ie., TEMP, RH, QPF 12HR) to view state forecast maps






NWS 48 Hr. Forecast Maps,

Regional Hourly Observations For CARLISLE County, Kentucky
Issued at 100 AM EST SUN DEC 17 2017
WESTERN AND SOUTH CENTRAL KENTUCKY
  
CITY           SKY/WX    TMP DP  RH WIND       PRES   REMARKS
PADUCAH        CLOUDY    42  29  59 S6        30.15F                  
HENDERSON      CLOUDY    40  31  70 S8        30.17S WCI  34          
OWENSBORO      PTCLDY    38  30  73 S5        30.19F WCI  34          
HOPKINSVILLE   PTCLDY    43  28  56 S6        30.19F                  
BOWLING GREEN  PTCLDY    41  31  67 S3        30.22F                  
GLASGOW        CLOUDY    41  30  65 S3        30.21F                  


Current NOWCAST not available:
Nowcasts are not issued routinely during fair weather. Only when
precipitation or other significant weather is occuring in this county will these
forecasts be issued. Currently, there is no short term forecast in effect.


Fire Weather Forecast For CARLISLE County, KY
Provided by the National Weather Service:

Issued at: Sun Dec 17 01:05:02 EST 2017

Cloud Cover           PCldy        Cloudy       MCldy        MCldy        
Precip Type           rain         rain         NONE         NONE         
Chance Precip (%)     70           90           0            0            
High Temperature(F)                46-50                     55-59        
Minimum RH(%)                      69-74                     55-60        
Low Temperature(F)    35-39                     38-42                     
Maximum RH(%)         89-94                     95-100                    
Temp (24h Trend)      37 (+7)      49 (-2)      40           58           
RH % (24h Trend)      92 (+1)      72 (+28)     100          58           
20FTWND-AM(MPH)                    S 4-8                     SW 3-7       
20FTWND-PM(MPH)       S 4-8        S 3-7        Lgt/Var      SW 5-9       
Precip Amount         0.04         0.15         0.00         0.00         
Precip Duration       1            7                                      
Precip Begin          12 AM        Continuing                             
Precip End            Continuing   6 PM                                   
1700'Mix Hgt Temp                  49                        56           
Mixing Hgt(FT-AGL)                 2410                      3561         
Transport Wind (KTS)               SW 11                     SW 17        
Transport Wind (M/S)               SW  6                     SW  9        
Vent Rate (M/S-M)                  4410                      9765         
Dispersion Index                   Fair                      Good         
LAL                   1            1            1            1            
Haines Index          3            2            2            3            
Stability(DSI)        STBL         STBL         STBL         STBL         

Remarks...None.

.Forecast for days 3 through 7...

.MONDAY NIGHT...Mostly cloudy. Lows in the mid 40s. Southwest
winds 5 to 10 mph. 
.TUESDAY...Partly sunny. Highs in the upper 50s. West winds 5 to
10 mph. 
.TUESDAY NIGHT...Partly cloudy with a 20 percent chance of rain.
Lows in the upper 30s. North winds 5 to 10 mph. 
.WEDNESDAY...Partly sunny with a 20 percent chance of rain. Highs
in the mid 50s. East winds 5 to 10 mph. 
.WEDNESDAY NIGHT...Partly cloudy. Lows in the upper 30s.
Southeast winds 5 to 10 mph. 
.THURSDAY...Mostly sunny. Highs in the upper 50s. South winds
5 to 10 mph. 
.THURSDAY NIGHT...Mostly cloudy with a 30 percent chance of rain.
Lows in the upper 30s. Southwest winds 5 to 15 mph. 
.FRIDAY...Partly sunny with a 20 percent chance of rain. Cooler.
Highs in the upper 40s. Northwest winds 10 to 15 mph. 
.FRIDAY NIGHT...Mostly cloudy with a 20 percent chance of rain
and snow. Lows in the upper 20s. North winds 5 to 15 mph. 
.SATURDAY...Mostly cloudy with a 20 percent chance of rain. Highs
around 40. Northeast winds 5 to 15 mph. 

SPC's Fire Weather Web Tool (Excellent!), SPC's Fire Weather Outlooks, NWS Fire Weather WEB, Fire Danger Class Map,
Keetch-Byram Drought Index, ROMAN Web, Haines Index ,
WFAS's 10-hr Dead Fuel Moist., WFAS's 100-hr Dead Fuel Moist., Probablity of Ignition, Visual blackness Map, Palmer Drought Index, HPC's Rainfall Forecast Maps


Hazardous Weather Outlook For CARLISLE County, Kentucky
335 AM CST Sat Dec 16 2017

 DAY ONE  Today and Tonight

No hazardous weather is expected at this time.

 DAYS TWO THROUGH SEVEN  Sunday through Friday

No hazardous weather is expected at this time.

 SPOTTER INFORMATION STATEMENT  

Spotter activation is not anticipated.

Latest CARLISLE County, Kentucky Watches, Warnings and Advisories.
Additional Drought Info.: UKAWC Drought Page, Kentucky Drought Watch


7-Day Forecast For CARLISLE County, KY

TONIGHT
Mostly cloudy. Rain likely after midnight. Lows in the upper 30s. South winds around 5 mph. Chance of precipitation 60 percent.

SUNDAY
Cloudy. Rain in the morning, then a slight chance of rain in the afternoon. Highs around 50. South winds around 5 mph. Chance of precipitation 90 percent.

SUNDAY NIGHT
Mostly cloudy. Lows in the lower 40s. South winds around 5 mph.

MONDAY
Mostly cloudy. Highs in the upper 50s. Southwest winds 5 to 10 mph.

MONDAY NIGHT
Partly cloudy in the evening then becoming mostly cloudy. Lows in the mid 40s. Southwest winds around 5 mph.

TUESDAY
Partly sunny. Highs in the upper 50s.

TUESDAY NIGHT
Partly cloudy. A 20 percent chance of rain after midnight. Lows in the upper 30s.

WEDNESDAY
Partly sunny with a 30 percent chance of rain. Highs in the lower 50s.

WEDNESDAY NIGHT
Mostly clear. Lows in the upper 30s.

THURSDAY
Partly sunny. Highs in the upper 50s.

THURSDAY NIGHT
Mostly cloudy. A 30 percent chance of rain after midnight. Lows in the upper 30s.

FRIDAY
Partly sunny. A 20 percent chance of rain in the afternoon. Highs in the upper 40s.

FRIDAY NIGHT
Mostly cloudy. A 20 percent chance of rain and snow in the evening. Lows in the upper 20s.

SATURDAY
Mostly cloudy. A 20 percent chance of rain in the afternoon. Highs around 40.

Ag Weather Center, Department of Biosystems & Agricultural Engineering, University of Kentucky